[[{"header":{"parameterUnit":"m.s-1","parameterCategory":1,"la1":30.2991,"la2":30.254,"lo1":-89.0895,"lo2":-89.0444,"dy":0.0017,"dx":0.0017,"nx":28,"ny":28,"refTime":"2024-10-18T21:00:00:Z","depth":0,"parameterNumber":2,"parameterNumberName":"U-component_of_WINDS"},"data":[0,0,0,0,0,0,0,0,0,0,0,0,0,0,0,0,0,0,0,0,0,0,0,0,0,0,0,0,0,0,0,0,0,0,0,0,0,0,0,0,0,0,0,0,0,0,0,0,0,0,0,0,0,0,0,0,0,0,-3.8796,-3.8796,0,-3.8787,-3.8787,-3.8787,-3.8669,-3.8666,-3.8663,-3.866,-3.8655,-3.8657,-3.866,0,0,0,0,0,0,0,0,0,0,0,0,0,-3.8712,-3.8715,-3.8796,-3.8796,-3.8795,-3.8787,-3.8787,-3.8787,-3.867,-3.8666,-3.8662,-3.8659,-3.8654,-3.8657,-3.866,0,0,0,0,0,0,0,0,0,0,0,0,0,-3.8731,-3.8715,-3.8796,-3.8736,-3.873,-3.8787,-3.8787,-3.8787,-3.867,-3.8666,-3.8661,-3.8657,-3.8653,-3.8657,-3.866,-3.8775,0,0,-3.8673,-3.8674,0,0,0,0,0,0,0,0,-3.873,-3.8734,-3.8745,-3.874,-3.8734,-3.8725,-3.8756,-3.8783,-3.8672,-3.8693,-3.866,-3.8655,-3.8682,-3.8683,-3.8691,-3.8775,-3.8775,-3.8673,-3.8675,-3.8677,-3.8678,0,0,0,0,0,0,0,-3.8729,-3.8734,-3.8792,-3.8745,-3.8738,-3.871,-3.8708,-3.876,-3.8713,-3.8691,-3.8682,-3.8683,-3.8678,-3.8688,-3.869,-3.8775,-3.8673,-3.8676,-3.8679,-3.868,-3.8953,-3.8958,0,0,0,0,0,0,-3.8736,-3.8734,-3.8793,-3.8792,-3.8721,-3.8715,-3.8713,-3.8732,-3.8712,-3.8705,-3.8687,-3.8677,-3.8683,-3.8686,-3.869,-3.8824,-3.8677,-3.8681,-3.8683,-3.8949,-3.8955,-3.896,0,0,0,0,0,0,-3.8734,-3.8742,-3.8793,-3.8761,-3.8765,-3.8722,-3.8744,-3.8734,-3.8744,-3.8709,-3.87,-3.8706,-3.868,-3.8684,-3.8755,-3.8822,-3.8683,-3.8686,-3.8943,-3.895,-3.8957,-3.9093,0,0,0,0,0,0,-3.8732,-3.8742,-3.8785,-3.8762,-3.8767,-3.8858,-3.8748,-3.8738,-3.8751,-3.8739,-3.8724,-3.8717,-3.8677,-3.875,-3.8759,-3.8825,-3.8689,-3.8937,-3.8946,-3.8955,-3.9083,-3.9104,-3.9123,0,0,0,0,0,-3.873,-3.8823,-3.8787,-3.8795,-3.8819,-3.8862,-3.8865,-3.8815,-3.8757,-3.88,-3.8777,-3.8718,-3.8813,-3.8758,-3.8767,-3.8836,-3.8932,-3.8944,-3.8954,-3.9074,-3.91,-3.9122,0,0,0,0,0,0,-3.8855,-3.8819,-3.8779,-3.8868,-3.8869,-3.8842,-3.8894,-3.8845,-3.8863,-3.8851,-3.8789,-3.8787,-3.8868,-3.8858,-3.8798,-3.8947,-3.8862,-3.8876,-3.895,-3.8975,-3.8995,-3.8996,-3.8693,0,0,0,0,0,-3.8893,-3.893,-3.8897,-3.8979,-3.8981,-3.8938,-3.8955,-3.8917,-3.8916,-3.8916,-3.8898,-3.89,-3.893,-3.8952,-3.8977,-3.908,-3.9076,-3.9132,-3.9152,-3.9169,-3.9182,-3.9237,-3.9262,-3.8996,-3.8996,-3.8996,0,0,-3.8972,-3.8957,-3.8984,-3.9004,-3.9,-3.9041,-3.8939,-3.8986,-3.9017,-3.8923,-3.8989,-3.8976,-3.8974,-3.9062,-3.91,-3.9057,-3.9254,-3.9183,-3.9196,-3.92,-3.9251,-3.9276,-3.9299,-3.9003,-3.9002,-3.9001,0,0,-3.9138,-3.9129,-3.9197,-3.9195,-3.9191,-3.9161,-3.9178,-3.9159,-3.9147,-3.9212,-3.9143,-3.9178,-3.9231,-3.9233,-3.9241,-3.9409,-3.9355,-3.9419,-3.9525,-3.9579,-3.96,-3.9619,-3.968,-3.9703,-3.9431,-3.9432,-3.9432,0,-3.9237,-3.9295,-3.9239,-3.9291,-3.9302,-3.9218,-3.9288,-3.9289,-3.9294,-3.9304,-3.9255,-3.9321,-3.9314,-3.9402,-3.9443,-3.9451,-3.947,-3.9421,-3.9602,-3.962,-3.9636,-3.9694,-3.9717,-3.9439,-3.9439,-3.9438,-3.9437,0,-3.9418,-3.9459,-3.9515,-3.9521,-3.9538,-3.9599,-3.9553,-3.9578,-3.9538,-3.9515,-3.9583,-3.9571,-3.9594,-3.9612,-3.9574,-3.9695,-3.9669,-3.9612,-3.9527,-3.967,-3.9724,-3.9745,-3.9451,-3.9448,-3.9446,-3.9444,0,0,-3.9662,-3.9637,-3.9659,-3.9661,-3.965,-3.9682,-3.9739,-3.9761,-3.9784,-3.979,-3.9838,-3.9885,-3.9832,-3.9842,-3.9803,-3.9851,-3.9987,-3.9788,-3.9787,-3.9827,-4.0122,-4.0167,-4.0193,-3.9951,-3.9955,-3.9958,-4.0123,0,-3.9823,-3.9919,-3.9871,-3.9973,-4.0012,-3.9933,-3.9983,-3.9983,-3.9963,-3.9993,-3.9971,-4.0006,-3.9933,-3.9939,-3.9982,-3.9961,-4.0046,-3.9948,-3.9997,-3.9999,-4.0001,-4.0221,-4.0267,-4.0424,-4.0144,-4.0147,-4.0149,0,-4.0024,-4.0038,-4.0145,-4.0128,-4.0142,-4.0188,-4.0205,-4.0234,-4.0233,-4.0215,-4.0226,-4.0176,-4.0233,-4.0147,-4.0225,-4.016,-4.0177,-4.017,-4.0175,-4.0179,-4.0084,-4.0233,-4.0472,-4.0497,-4.0182,-4.0179,-4.0177,0,-4.0194,-4.024,-4.031,-4.0314,-4.0296,-4.033,-4.0324,-4.0318,-4.0335,-4.035,-4.036,-4.0382,-4.0394,-4.0413,-4.0371,-4.0312,-4.0456,-4.0366,-4.0444,-4.0446,-4.0479,-4.0478,-4.0727,-4.0488,-4.0487,-4.0487,-4.0486,0,-4.038,-4.0449,-4.0386,-4.043,-4.0505,-4.0449,-4.0525,-4.0511,-4.0506,-4.0547,-4.0479,-4.0519,-4.0461,-4.0495,-4.0462,-4.0533,-4.0539,-4.0527,-4.0518,-4.0535,-4.0536,-4.0546,-4.0535,-4.0493,-4.0492,-4.049,-4.0489,0,-4.0583,-4.0544,-4.0616,-4.0592,-4.0588,-4.0645,-4.0625,-4.0665,-4.064,-4.0692,-4.0701,-4.0662,-4.0699,-4.0659,-4.0693,-4.0671,-4.0768,-4.0741,-4.0768,-4.0762,-4.0843,-4.0837,-4.1108,-4.1142,-4.0879,-4.0882,-4.0884,0,-4.0705,-4.0756,-4.0738,-4.076,-4.0758,-4.0794,-4.0811,-4.0758,-4.0778,-4.0781,-4.0821,-4.0852,-4.0874,-4.0937,-4.0913,-4.0939,-4.0914,-4.1008,-4.0918,-4.0933,-4.0918,-4.0917,-4.0922,-4.1027,-4.103,-4.1032,-4.1034,0,-4.0927,-4.0905,-4.0931,-4.0951,-4.0973,-4.0986,-4.0994,-4.1016,-4.0962,-4.0988,-4.1025,-4.1042,-4.1076,-4.1109,-4.1128,-4.1123,-4.1071,-4.1063,-4.1082,-4.11,-4.1115,-4.111,-4.082,-4.1057,-4.1055,-4.1053,-4.1052,-4.1051,-4.1094,-4.1136,-4.1131,-4.1163,-4.1163,-4.1173,-4.121,-4.1189,-4.1219,-4.1242,-4.1209,-4.1256,-4.1254,-4.1274,-4.1275,-4.1312,-4.1272,-4.13,-4.1308,-4.1316,-4.1329,-4.1108,-4.1315,-4.1314,-4.1313,-4.1313,-4.1312,0,-4.1314,-4.1306,-4.1336,-4.135,-4.1375,-4.1322,-4.1329,-4.1355,-4.1396,-4.1398,-4.1421,-4.1464,-4.1496,-4.1474,-4.1501,-4.1534,-4.1511,-4.1543,-4.1541,-4.1542,-4.1362,-4.1343,-4.1562,-4.1562,-4.1562,-4.1562,-4.1562,-4.1561,-4.1431,-4.15,-4.1478,-4.1548,-4.154,-4.1584,-4.1593,-4.1602,-4.1604,-4.1655,-4.168,-4.1666,-4.1659,-4.1685,-4.1712,-4.1705,-4.1719,-4.176,-4.1745,-4.1578,-4.1554,-4.1531,-4.1513,-4.1763,-4.1764,-4.1922,-4.1923,-4.1924]},{"header":{"parameterUnit":"m.s-1","parameterCategory":1,"la1":30.2991,"la2":30.254,"lo1":-89.0895,"lo2":-89.0444,"dy":0.0017,"dx":0.0017,"nx":28,"ny":28,"refTime":"2024-10-18T21:00:00:Z","depth":0,"parameterNumber":3,"parameterNumberName":"V-component_of_WINDS"},"data":[0,0,0,0,0,0,0,0,0,0,0,0,0,0,0,0,0,0,0,0,0,0,0,0,0,0,0,0,0,0,0,0,0,0,0,0,0,0,0,0,0,0,0,0,0,0,0,0,0,0,0,0,0,0,0,0,0,0,-0.7469,-0.7469,0,-0.7518,-0.7518,-0.7519,-0.7518,-0.7518,-0.7517,-0.7517,-0.7569,-0.757,-0.7572,0,0,0,0,0,0,0,0,0,0,0,0,0,-0.7376,-0.7377,-0.7468,-0.7469,-0.747,-0.7518,-0.7518,-0.7519,-0.7519,-0.7518,-0.7517,-0.7516,-0.7568,-0.757,-0.7573,0,0,0,0,0,0,0,0,0,0,0,0,0,-0.742,-0.7378,-0.7468,-0.7475,-0.7476,-0.7517,-0.7518,-0.7519,-0.7519,-0.7518,-0.7517,-0.7516,-0.7567,-0.757,-0.7573,-0.7611,0,0,-0.7582,-0.7583,0,0,0,0,0,0,0,0,-0.7417,-0.7423,-0.7474,-0.7475,-0.7476,-0.7511,-0.7505,-0.755,-0.7519,-0.7503,-0.7517,-0.7515,-0.755,-0.7555,-0.7566,-0.7613,-0.7616,-0.7582,-0.7584,-0.7585,-0.7586,0,0,0,0,0,0,0,-0.7414,-0.7421,-0.7488,-0.7474,-0.7476,-0.7476,-0.7482,-0.7513,-0.7531,-0.7504,-0.7504,-0.751,-0.7551,-0.7563,-0.7567,-0.7616,-0.7582,-0.7585,-0.7587,-0.7588,-0.7699,-0.77,0,0,0,0,0,0,-0.7409,-0.7418,-0.7486,-0.7489,-0.7444,-0.7479,-0.7485,-0.7501,-0.7531,-0.7535,-0.7511,-0.751,-0.7558,-0.7564,-0.7569,-0.7617,-0.7585,-0.7588,-0.759,-0.7697,-0.7699,-0.77,0,0,0,0,0,0,-0.7407,-0.7415,-0.7484,-0.7454,-0.7463,-0.7481,-0.75,-0.7502,-0.7515,-0.7536,-0.7539,-0.752,-0.7558,-0.7565,-0.7601,-0.7619,-0.759,-0.7592,-0.7696,-0.7698,-0.7699,-0.7712,0,0,0,0,0,0,-0.7405,-0.7415,-0.7429,-0.7454,-0.7464,-0.7515,-0.7501,-0.7504,-0.752,-0.7519,-0.7546,-0.7549,-0.7558,-0.7596,-0.7604,-0.7622,-0.7595,-0.7695,-0.7697,-0.7699,-0.771,-0.7714,-0.7717,0,0,0,0,0,-0.7401,-0.7431,-0.743,-0.7438,-0.7483,-0.7516,-0.7522,-0.7531,-0.7521,-0.7536,-0.755,-0.7548,-0.7615,-0.76,-0.7608,-0.7628,-0.7694,-0.7696,-0.7699,-0.7709,-0.7713,-0.7717,0,0,0,0,0,0,-0.7408,-0.7434,-0.7433,-0.7472,-0.7491,-0.7516,-0.7535,-0.7535,-0.7559,-0.7557,-0.7567,-0.7573,-0.7609,-0.7622,-0.7605,-0.7667,-0.7653,-0.7658,-0.7658,-0.7662,-0.7666,-0.7663,-0.7597,0,0,0,0,0,-0.7413,-0.7438,-0.746,-0.7491,-0.7501,-0.7516,-0.7531,-0.7536,-0.7557,-0.7566,-0.7582,-0.7603,-0.7629,-0.7646,-0.7671,-0.7711,-0.7718,-0.7729,-0.7732,-0.7735,-0.774,-0.7763,-0.7769,-0.7709,-0.7709,-0.7708,0,0,-0.7426,-0.7443,-0.7458,-0.7493,-0.7509,-0.7535,-0.7523,-0.7551,-0.7571,-0.757,-0.7606,-0.7618,-0.7642,-0.7681,-0.7699,-0.7693,-0.7757,-0.7738,-0.7741,-0.7744,-0.7767,-0.7772,-0.7778,-0.771,-0.771,-0.771,0,0,-0.7462,-0.7477,-0.7506,-0.7522,-0.7546,-0.7556,-0.7562,-0.7587,-0.7595,-0.763,-0.7631,-0.7654,-0.7698,-0.7716,-0.7731,-0.7773,-0.7773,-0.778,-0.78,-0.7823,-0.7828,-0.7832,-0.7849,-0.7855,-0.7784,-0.7784,-0.7784,0,-0.7475,-0.7513,-0.752,-0.7549,-0.7564,-0.7564,-0.7594,-0.7609,-0.7641,-0.7652,-0.7644,-0.77,-0.7716,-0.7759,-0.777,-0.7781,-0.779,-0.7779,-0.7826,-0.7831,-0.7835,-0.7852,-0.7858,-0.7785,-0.7785,-0.7785,-0.7785,0,-0.7529,-0.7555,-0.7576,-0.7606,-0.7623,-0.7652,-0.7664,-0.7681,-0.7685,-0.7695,-0.7732,-0.7751,-0.778,-0.779,-0.7794,-0.7835,-0.783,-0.7824,-0.7811,-0.7842,-0.7858,-0.7864,-0.7787,-0.7786,-0.7786,-0.7786,0,0,-0.7572,-0.7605,-0.7613,-0.7627,-0.7653,-0.7674,-0.7703,-0.7731,-0.7747,-0.7768,-0.7793,-0.783,-0.7825,-0.7841,-0.7846,-0.7866,-0.7901,-0.7858,-0.7859,-0.7867,-0.7949,-0.7956,-0.7963,-0.79,-0.7901,-0.7902,-0.7948,0,-0.7613,-0.7664,-0.7671,-0.7717,-0.7742,-0.7742,-0.7767,-0.7787,-0.7797,-0.7821,-0.7832,-0.7859,-0.7849,-0.7859,-0.7879,-0.7893,-0.7918,-0.7889,-0.7926,-0.7927,-0.7922,-0.7971,-0.7977,-0.802,-0.7954,-0.7955,-0.7956,0,-0.7668,-0.7691,-0.7739,-0.7762,-0.7773,-0.7796,-0.7823,-0.7845,-0.7866,-0.7873,-0.7891,-0.7894,-0.7924,-0.7908,-0.7951,-0.7931,-0.7946,-0.7955,-0.7957,-0.7963,-0.7945,-0.798,-0.8033,-0.8041,-0.7965,-0.7965,-0.7964,0,-0.7698,-0.774,-0.7775,-0.7786,-0.7814,-0.783,-0.7842,-0.7863,-0.788,-0.7903,-0.7914,-0.7941,-0.7956,-0.7976,-0.7987,-0.7973,-0.803,-0.8014,-0.8037,-0.8037,-0.8052,-0.8051,-0.811,-0.8057,-0.8057,-0.8057,-0.8057,0,-0.7744,-0.7774,-0.7788,-0.781,-0.7844,-0.7851,-0.7885,-0.7897,-0.7915,-0.794,-0.794,-0.7963,-0.7974,-0.7999,-0.8006,-0.8042,-0.8048,-0.8055,-0.8057,-0.8057,-0.8056,-0.8069,-0.8067,-0.8058,-0.8058,-0.8058,-0.8057,0,-0.7784,-0.7795,-0.7833,-0.7856,-0.7862,-0.7886,-0.7906,-0.7927,-0.7937,-0.7968,-0.7976,-0.7991,-0.8021,-0.8032,-0.8067,-0.8073,-0.8115,-0.8113,-0.8108,-0.8109,-0.8133,-0.8131,-0.8204,-0.8215,-0.8152,-0.8153,-0.8153,0,-0.7814,-0.7838,-0.7863,-0.7879,-0.7892,-0.7918,-0.7935,-0.7943,-0.7961,-0.7987,-0.8006,-0.8035,-0.8059,-0.8105,-0.8121,-0.8148,-0.8149,-0.8172,-0.8153,-0.8152,-0.8152,-0.8152,-0.8155,-0.8177,-0.8178,-0.8178,-0.8178,0,-0.7868,-0.7872,-0.7896,-0.7922,-0.7943,-0.7964,-0.7984,-0.7998,-0.8009,-0.8029,-0.8058,-0.8077,-0.8113,-0.8143,-0.8171,-0.8184,-0.8184,-0.8184,-0.8191,-0.8192,-0.8189,-0.8194,-0.812,-0.8183,-0.8183,-0.8182,-0.8182,-0.8182,-0.7906,-0.7927,-0.7948,-0.7975,-0.7991,-0.801,-0.8032,-0.8044,-0.8069,-0.8099,-0.8102,-0.8135,-0.8156,-0.8194,-0.8208,-0.8234,-0.8228,-0.8238,-0.8242,-0.8245,-0.8248,-0.8182,-0.8239,-0.8239,-0.8239,-0.8239,-0.8239,0,-0.7961,-0.7975,-0.7999,-0.8028,-0.805,-0.8046,-0.8068,-0.8087,-0.8116,-0.8135,-0.8159,-0.8193,-0.8222,-0.8239,-0.8267,-0.8285,-0.8286,-0.8293,-0.8293,-0.8296,-0.825,-0.8242,-0.8292,-0.8292,-0.8292,-0.8292,-0.8292,-0.8292,-0.7993,-0.8029,-0.8035,-0.8079,-0.8093,-0.8124,-0.8138,-0.8156,-0.8172,-0.8211,-0.8234,-0.8244,-0.8263,-0.8293,-0.832,-0.8324,-0.8336,-0.8343,-0.8348,-0.8305,-0.8299,-0.8294,-0.8287,-0.8345,-0.8345,-0.8392,-0.8392,-0.8393]}]]